NST,Max TemperatureF,Mean TemperatureF,Min TemperatureF,Max Dew PointF,MeanDew PointF,Min DewpointF,Max Humidity, Mean Humidity, Min Humidity, Max Sea Level PressureIn, Mean Sea Level PressureIn, Min Sea Level PressureIn, Max VisibilityMiles, Mean VisibilityMiles, Min VisibilityMiles, Max Wind SpeedMPH, Mean Wind SpeedMPH, Max Gust SpeedMPH,PrecipitationIn, CloudCover, Events, WindDirDegrees
2013-11-1,54,47,41,53,44,32,97,84,59,30.15,29.92,29.67,,,,36,22,46,0.35,,,206
2013-11-2,55,52,48,55,51,48,98,97,95,29.67,29.60,29.51,,,,38,30,51,0.12,,,213
2013-11-3,49,45,40,49,44,28,98,91,47,29.97,29.75,29.60,,,,16,11,,0.24,,,245
2013-11-4,42,38,31,32,29,18,76,68,53,30.40,30.17,29.96,,,,20,14,26,0.00,,,22
2013-11-5,37,35,33,26,23,21,73,60,44,30.51,30.47,30.41,,,,17,13,23,0.00,,,321
2013-11-6,45,39,33,40,32,23,82,70,57,30.46,30.34,30.19,,,,25,14,21,0.00,,,265
2013-11-7,51,48,44,50,46,40,97,91,83,30.17,29.91,29.68,,,,30,20,40,0.12,,,215
2013-11-8,58,50,41,56,49,37,97,94,77,29.65,29.44,29.31,,,,47,28,60,0.28,,,221
2013-11-9,43,40,36,33,31,27,86,67,54,29.77,29.57,29.43,,,,17,14,23,0.00,,,302
2013-11-10,40,36,33,32,28,24,88,70,47,30.11,30.01,29.80,,,,10,6,,0.00,,,86
2013-11-11,40,37,34,39,34,27,99,87,63,30.05,29.60,29.19,,,,33,19,43,0.87,,,61
2013-11-12,51,41,31,47,36,27,87,79,62,30.07,29.98,29.74,,,,28,16,40,0.08,,,186
2013-11-13,54,44,35,51,36,26,96,81,61,29.79,29.72,29.63,,,,33,21,46,0.67,,,283
2013-11-14,38,36,33,34,25,20,84,66,46,29.98,29.86,29.71,,,,18,15,25,0.00,,,315
2013-11-15,44,38,33,38,36,31,86,75,59,30.25,30.13,29.99,,,,20,15,,0.00,,,241
2013-11-16,47,44,42,44,42,38,94,87,78,30.42,30.35,30.25,,,,16,11,18,0.00,,,191
2013-11-17,50,46,43,46,43,40,95,87,72,30.44,30.42,30.40,,,,13,5,,0.00,,,159
2013-11-18,45,44,42,41,39,38,91,83,69,30.37,30.25,30.09,,,,10,6,,0.00,,,141
2013-11-19,48,45,42,44,42,39,93,88,82,30.07,29.87,29.68,,,,33,16,43,0.00,,,163
2013-11-20,46,42,37,45,40,34,95,87,72,29.65,29.56,29.43,,,,34,21,46,0.20,,,238
2013-11-21,41,38,34,36,34,30,96,87,71,29.53,29.35,29.16,,,,25,17,32,0.31,,,360
2013-11-22,39,37,35,38,36,35,100,95,84,29.49,29.46,29.43,,,,39,29,47,0.24,,,350
2013-11-23,40,38,36,38,34,31,95,84,74,29.47,29.36,29.19,,,,33,17,45,0.03,,,263
2013-11-24,40,36,33,37,30,23,95,70,38,29.41,29.34,29.18,,,,43,31,55,0.12,,,225
2013-11-25,36,34,31,32,28,24,91,71,52,30.00,29.66,29.38,,,,38,31,47,0.00,,,247
2013-11-26,39,36,33,32,30,28,88,74,59,30.45,30.31,30.02,,,,32,25,39,0.00,,,254
2013-11-27,48,42,37,42,39,32,94,85,68,30.48,30.42,30.30,,,,21,13,29,0.02,,,177
2013-11-28,55,49,43,51,44,38,97,84,72,30.27,29.97,29.75,,,,40,31,58,0.12,,,174
2013-11-29,41,38,35,38,30,26,84,69,53,30.25,30.18,29.96,,,,30,19,36,0.03,,,267
2013-11-30,34,28,21,31,20,7,96,69,40,30.56,30.34,30.17,,,,22,14,30,0.03,,,317